Location: Angwan Shehu
(11.2514°N, 7.4613°E)
Time: 22:41:43
(UTC+00:00)

Vanguard 3 - Pass Details

Date: 01 August 2021
Orbit: 510 x 3260 km, 33.3° (Epoch: 18 September)

Event Time Altitude Azimuth Distance (km) Brightness Sun altitude
Rises 23:50:33 0° 304° (NW) 7,221 12.2 -60.5°
Reaches altitude 10° 23:55:37 10° 305° (NW) 6,128 11.7 -60.4°
Enters shadow 00:04:47 35° 309° (NW) 4,089 10.6 -59.9°
